Date String (YYYY-MM-DD hh:mm:ss) UTC,Instrument flags,absolute air pressure of the measurement (hPa),sample flow rate (lpm),inlet stack bypass flow (lpm),air temperature of the measurement (°C),ambient temperature measured by the external sensor (°C),aerosol sample conditioner tube jacket temperature (°C),OPC LED temperature (°C),internal box temperature (°C),relative humidity of the measurement (%),span deviation,mass concentration of particles derived from Lorenz-Mie calculation of OPC scattering (μg/m³),mass concentration of particles derived from Lorenz-Mie calculation of OPC scattering (μg/m³),mass concentration of particles derived from Lorenz-Mie calculation of OPC scattering (μg/m³)
DateTimeUTC,F1_M11,P_M11,Q1_M11,Q2_M11,T1_M11,T2_M11,T3_M11,T4_M11,T5_M11,U1_M11,ZSPAN_M11,X2_M11,X0_M11,X1_M11
2024-03-01 18:00:00,SystemResetWarning,0822.7,4.99,000.00,022.2,021.7,000.0,030.2,023.9,09.9,0000.0,0002.86,0007.62,0001.28
2024-03-01 18:01:00,SystemResetWarning,0822.7,5.00,000.00,022.3,021.7,000.0,030.2,024.0,09.5,0000.0,0002.93,0007.79,0001.28
2024-03-01 18:02:00,SystemResetWarning,0822.9,5.00,000.00,022.3,021.7,000.0,030.2,024.0,09.5,0000.0,0002.93,0007.91,0001.27
2024-03-01 18:03:00,SystemResetWarning,0822.7,5.01,000.00,022.3,021.7,000.0,030.3,024.0,09.5,0000.0,0002.84,0007.79,0001.25
2024-03-01 18:04:00,SystemResetWarning,0822.8,5.00,000.00,022.3,021.7,000.0,030.3,024.0,09.5,0000.0,0002.74,0007.43,0001.25
2024-03-01 18:05:00,SystemResetWarning,0823.0,5.00,000.00,022.3,021.7,000.0,030.3,024.0,09.6,0000.0,0002.65,0007.22,0001.24
2024-03-01 18:06:00,SystemResetWarning,0822.8,5.00,000.00,022.3,021.7,000.0,030.3,024.0,09.6,0000.0,0002.66,0007.24,0001.24
2024-03-01 18:07:00,SystemResetWarning,0822.8,5.00,000.00,022.3,021.7,000.0,030.3,024.1,09.4,0000.0,0002.67,0007.36,0001.25
2024-03-01 18:08:00,SystemResetWarning,0822.9,5.00,000.00,022.3,021.8,000.0,030.3,024.1,09.3,0000.0,0002.72,0008.00,0001.25
2024-03-01 18:09:00,SystemResetWarning,0822.9,5.00,000.00,022.4,021.8,000.0,030.3,024.1,09.2,0000.0,0002.72,0008.07,0001.25
2024-03-01 18:10:00,SystemResetWarning,0822.8,5.00,000.00,022.4,021.8,000.0,030.3,024.0,09.4,0000.0,0002.65,0007.95,0001.23
2024-03-01 18:11:00,SystemResetWarning,0822.8,5.00,000.00,022.4,021.8,000.0,030.4,024.1,09.6,0000.0,0002.56,0007.87,0001.20
2024-03-01 18:12:00,SystemResetWarning,0822.9,4.99,000.00,022.4,021.8,000.0,030.4,024.1,09.6,0000.0,0002.46,0007.70,0001.20
2024-03-01 18:13:00,SystemResetWarning,0822.9,4.99,000.00,022.4,021.8,000.0,030.4,024.2,09.2,0000.0,0002.49,0008.03,0001.19
2024-03-01 18:14:00,SystemResetWarning,0822.9,5.00,000.00,022.4,021.8,000.0,030.4,024.2,09.3,0000.0,0002.47,0007.89,0001.18
2024-03-01 18:15:00,SystemResetWarning,0822.8,5.00,000.00,022.4,021.8,000.0,030.4,024.1,09.3,0000.0,0002.48,0008.00,0001.17
2024-03-01 18:16:00,SystemResetWarning,0822.8,5.01,000.00,022.5,021.9,000.0,030.4,024.1,08.8,0000.0,0002.51,0008.02,0001.17
2024-03-01 18:17:00,SystemResetWarning,0822.8,5.00,000.00,022.5,021.9,000.0,030.4,024.1,08.7,0000.0,0002.40,0007.86,0001.16
2024-03-01 18:18:00,SystemResetWarning,0822.8,5.00,000.00,022.5,021.9,000.0,030.4,024.2,08.8,0000.0,0002.35,0007.77,0001.16
2024-03-01 18:19:00,SystemResetWarning,0822.8,5.00,000.00,022.5,021.9,000.0,030.5,024.2,08.9,0000.0,0002.33,0006.45,0001.16
2024-03-01 18:20:00,SystemResetWarning,0822.9,4.99,000.00,022.5,021.9,000.0,030.5,024.2,09.0,0000.0,0002.33,0006.27,0001.15
2024-03-01 18:21:00,SystemResetWarning,0822.9,4.99,000.00,022.5,021.9,000.0,030.5,024.2,09.2,0000.0,0002.35,0006.32,0001.16
2024-03-01 18:22:00,SystemResetWarning,0822.9,4.99,000.00,022.5,021.9,000.0,030.5,024.3,09.2,0000.0,0002.39,0006.51,0001.15
2024-03-01 18:23:00,SystemResetWarning,0822.9,5.01,000.00,022.6,022.0,000.0,030.5,024.3,09.0,0000.0,0002.40,0006.57,0001.15
2024-03-01 18:24:00,SystemResetWarning,0822.9,5.00,000.00,022.6,022.0,000.0,030.5,024.3,08.9,0000.0,0002.38,0006.00,0001.16
2024-03-01 18:25:00,SystemResetWarning,0822.9,5.00,000.00,022.6,022.0,000.0,030.5,024.3,09.3,0000.0,0002.33,0005.71,0001.15
2024-03-01 18:26:00,SystemResetWarning,0822.9,5.01,000.00,022.6,022.0,000.0,030.6,024.3,09.6,0000.0,0002.34,0005.35,0001.15
2024-03-01 18:27:00,SystemResetWarning,0823.0,5.00,000.00,022.6,022.0,000.0,030.6,024.3,09.6,0000.0,0002.35,0005.37,0001.15
2024-03-01 18:28:00,SystemResetWarning,0822.9,5.00,000.00,022.6,022.0,000.0,030.6,024.3,09.1,0000.0,0002.36,0005.48,0001.14
2024-03-01 18:29:00,SystemResetWarning,0822.9,5.00,000.00,022.7,022.1,000.0,030.6,024.4,08.8,0000.0,0002.29,0005.16,0001.13
2024-03-01 18:30:00,SystemResetWarning,0823.0,5.00,000.00,022.7,022.1,000.0,030.6,024.4,09.6,0000.0,0002.19,0004.87,0001.09
2024-03-01 18:31:00,SystemResetWarning,0823.0,5.00,000.00,022.7,022.1,000.0,030.6,024.4,09.6,0000.0,0002.09,0004.46,0001.07
2024-03-01 18:32:00,SystemResetWarning,0822.8,4.99,000.00,022.7,022.1,000.0,030.6,024.4,09.7,0000.0,0002.06,0004.37,0001.05
2024-03-01 18:33:00,SystemResetWarning,0822.8,5.00,000.00,022.7,022.1,000.0,030.7,024.4,09.0,0000.0,0002.03,0004.42,0001.04
2024-03-01 18:34:00,SystemResetWarning,0822.9,5.00,000.00,022.7,022.1,000.0,030.7,024.4,08.7,0000.0,0002.02,0005.50,0001.03
2024-03-01 18:35:00,SystemResetWarning,0823.0,5.01,000.00,022.7,022.2,000.0,030.7,024.4,09.3,0000.0,0002.01,0005.63,0001.03
2024-03-01 18:36:00,SystemResetWarning,0822.9,5.00,000.00,022.8,022.2,000.0,030.7,024.5,09.7,0000.0,0002.09,0006.07,0001.04
2024-03-01 18:37:00,SystemResetWarning,0823.1,4.99,000.00,022.8,022.2,000.0,030.7,024.5,09.8,0000.0,0002.11,0006.17,0001.04
2024-03-01 18:38:00,SystemResetWarning,0822.9,4.99,000.00,022.8,022.2,000.0,030.7,024.5,09.2,0000.0,0002.16,0006.37,0001.04
2024-03-01 18:39:00,SystemResetWarning,0822.9,5.01,000.00,022.8,022.2,000.0,030.7,024.5,08.5,0000.0,0002.23,0006.86,0001.03
2024-03-01 18:40:00,SystemResetWarning,0822.9,5.00,000.00,022.8,022.2,000.0,030.8,024.6,08.7,0000.0,0002.30,0007.51,0001.04
2024-03-01 18:41:00,SystemResetWarning,0823.1,5.00,000.00,022.8,022.2,000.0,030.8,024.6,08.7,0000.0,0002.35,0007.77,0001.06
2024-03-01 18:42:00,SystemResetWarning,0822.8,5.00,000.00,022.8,022.3,000.0,030.8,024.6,08.8,0000.0,0002.38,0007.85,0001.07
2024-03-01 18:43:00,SystemResetWarning,0822.9,5.00,000.00,022.9,022.3,000.0,030.8,024.6,08.4,0000.0,0002.39,0008.53,0001.08
2024-03-01 18:44:00,SystemResetWarning,0822.9,4.99,000.00,022.9,022.3,000.0,030.8,024.6,08.7,0000.0,0002.50,0008.71,0001.11
2024-03-01 18:45:00,SystemResetWarning,0823.0,4.99,000.00,022.9,022.3,000.0,030.8,024.6,09.0,0000.0,0002.57,0008.28,0001.12
2024-03-01 18:46:00,SystemResetWarning,0822.9,5.01,000.00,022.9,022.3,000.0,030.8,024.6,09.0,0000.0,0002.57,0008.23,0001.13
2024-03-01 18:47:00,SystemResetWarning,0822.8,5.01,000.00,022.9,022.3,000.0,030.9,024.6,08.7,0000.0,0002.48,0008.02,0001.11
2024-03-01 18:48:00,SystemResetWarning,0822.9,5.00,000.00,022.9,022.3,000.0,030.9,024.6,08.7,0000.0,0002.44,0007.98,0001.10
2024-03-01 18:49:00,SystemResetWarning,0823.0,5.01,000.00,022.9,022.3,000.0,030.9,024.6,08.7,0000.0,0002.42,0008.02,0001.09
2024-03-01 18:50:00,SystemResetWarning,0822.9,5.00,000.00,022.9,022.3,000.0,030.9,024.7,08.8,0000.0,0002.50,0008.12,0001.11
2024-03-01 18:51:00,SystemResetWarning,0822.7,4.99,000.00,022.9,022.3,000.0,030.9,024.7,08.7,0000.0,0002.46,0007.76,0001.10
2024-03-01 18:52:00,SystemResetWarning,0822.7,5.00,000.00,023.0,022.3,000.0,030.9,024.7,08.8,0000.0,0002.43,0007.73,0001.09
2024-03-01 18:53:00,SystemResetWarning,0822.7,4.99,000.00,023.0,022.3,000.0,030.9,024.7,08.9,0000.0,0002.44,0007.69,0001.09
2024-03-01 18:54:00,SystemResetWarning,0822.8,5.00,000.00,023.0,022.3,000.0,031.0,024.7,08.8,0000.0,0002.37,0006.78,0001.09
2024-03-01 18:55:00,SystemResetWarning,0823.0,5.00,000.00,023.0,022.4,000.0,031.0,024.7,08.7,0000.0,0002.21,0005.97,0001.07
2024-03-01 18:56:00,SystemResetWarning,0822.6,5.00,000.00,023.0,022.4,000.0,031.0,024.7,08.9,0000.0,0002.12,0005.55,0001.04
2024-03-01 18:57:00,SystemResetWarning,0822.6,5.00,000.00,023.0,022.4,000.0,031.0,024.7,08.8,0000.0,0002.09,0005.56,0001.02
2024-03-01 18:58:00,SystemResetWarning,0822.7,5.00,000.00,023.0,022.4,000.0,031.0,024.8,09.0,0000.0,0002.14,0005.70,0001.01
2024-03-01 18:59:00,SystemResetWarning,0822.8,5.00,000.00,023.0,022.4,000.0,031.0,024.7,09.1,0000.0,0002.19,0005.92,0001.02
